N1VL Weather Reports


Display with metric or nautical units.
time (UTC)temp
F
wind
direction
speed
MPH
gust
MPH
rain 1hr
in
rain 24hr
in
rain mn
in
humidity
%
barometer
mb
20260503004503 74 124 5.0 9.0 0.00 0.00 0.00 18 1017.6
20260503003602 74 110 4.0 8.0 0.00 0.00 0.00 17 1017.6
20260503002724 74 81 4.0 9.0 0.00 0.00 0.00 16 1017.6
20260503001802 74 83 5.0 10.0 0.00 0.00 0.00 16 1017.7
20260503000923 74 94 7.0 12.0 0.00 0.00 0.00 17 1017.6
20260503000003 74 93 7.0 12.0 0.00 0.00 0.00 18 1017.7
20260502235402 74 89 6.0 12.0 0.00 0.00 0.00 17 1017.7
20260502234502 75 84 7.0 12.0 0.00 0.00 0.00 16 1017.8
20260502233602 75 81 5.0 10.0 0.00 0.00 0.00 17 1017.9
20260502232702 74 92 6.0 10.0 0.00 0.00 0.00 17 1018.0
20260502231823 75 59 6.0 11.0 0.00 0.00 0.00 17 1018.1
20260502230902 76 29 5.0 10.0 0.00 0.00 0.00 17 1018.2
20260502230003 76 65 5.0 10.0 0.00 0.00 0.00 17 1018.3
20260502225403 76 49 5.0 9.0 0.00 0.00 0.00 17 1018.3
20260502224502 75 46 6.0 10.0 0.00 0.00 0.00 17 1018.6
20260502223602 74 77 5.0 11.0 0.00 0.00 0.00 18 1018.8
20260502222703 74 96 4.0 9.0 0.00 0.00 0.00 18 1018.9
20260502221823 74 51 4.0 9.0 0.00 0.00 0.00 18 1019.1
20260502220902 74 81 6.0 11.0 0.00 0.00 0.00 18 1019.2
20260502220003 74 106 6.0 11.0 0.00 0.00 0.00 18 1019.4
20260502215403 73 98 5.0 11.0 0.00 0.00 0.00 19 1019.6
20260502214503 73 86 6.0 12.0 0.00 0.00 0.00 17 1019.8
20260502213602 74 65 7.0 11.0 0.00 0.00 0.00 18 1020.0
20260502212723 74 73 6.0 12.0 0.00 0.00 0.00 17 1020.2
20260502211802 74 105 4.0 9.0 0.00 0.00 0.00 18 1020.2
20260502210902 74 78 5.0 11.0 0.00 0.00 0.00 17 1020.5
20260502210003 73 82 5.0 11.0 0.00 0.00 0.00 18 1020.7
20260502205402 72 88 6.0 11.0 0.00 0.00 0.00 18 1020.8
20260502204502 73 68 5.0 8.0 0.00 0.00 0.00 18 1020.9
20260502203602 72 113 4.0 8.0 0.00 0.00 0.00 17 1021.0
20260502202702 72 69 3.0 9.0 0.00 0.00 0.00 18 1021.1
20260502201803 72 86 5.0 8.0 0.00 0.00 0.00 17 1021.3
20260502200902 71 75 4.0 9.0 0.00 0.00 0.00 19 1021.4
20260502200003 71 105 5.0 9.0 0.00 0.00 0.00 18 1021.5
20260502194502 70 125 4.0 9.0 0.00 0.00 0.00 19 1021.7
20260502193603 70 109 4.0 9.0 0.00 0.00 0.00 18 1021.9
20260502192702 70 123 3.0 8.0 0.00 0.00 0.00 19 1021.9
20260502191802 70 99 4.0 8.0 0.00 0.00 0.00 20 1022.0
20260502190902 69 93 5.0 8.0 0.00 0.00 0.00 21 1022.1
20260502190003 68 112 5.0 9.0 0.00 0.00 0.00 22 1022.2
20260502185402 68 113 5.0 9.0 0.00 0.00 0.00 23 1022.5
20260502184523 68 84 3.0 8.0 0.00 0.00 0.00 25 1022.6
20260502183602 68 117 3.0 7.0 0.00 0.00 0.00 24 1022.8
20260502181802 66 118 5.0 10.0 0.00 0.00 0.00 26 1023.0
20260502180902 66 119 4.0 9.0 0.00 0.00 0.00 30 1023.1
20260502163603 59 119 5.0 8.0 0.00 0.00 0.00 39 1023.6
20260502162702 59 125 5.0 9.0 0.00 0.00 0.00 40 1023.6
20260502161824 58 115 5.0 9.0 0.00 0.00 0.00 41 1023.7
20260502160902 59 124 4.0 8.0 0.00 0.00 0.00 44 1023.7
20260502151803 55 130 4.0 7.0 0.00 0.00 0.00 48 1023.9
20260502150903 55 128 3.0 7.0 0.00 0.00 0.00 48 1023.8
20260502123602 40 111 2.0 4.0 0.00 0.00 0.00 58 1023.3
20260502122703 40 111 1.0 4.0 0.00 0.00 0.00 59 1023.2
20260502121803 40 111 0.0 4.0 0.00 0.00 0.00 58 1023.2
20260502120924 40 111 1.0 4.0 0.00 0.00 0.00 58 1023.2
20260502115403 40 111 2.0 5.0 0.00 0.00 0.00 60 1023.1
20260502114502 40 88 3.0 5.0 0.00 0.00 0.00 60 1023.1
20260502113614 41 59 4.0 5.0 0.00 0.00 0.00 60 1023.0
20260502112702 41 54 2.0 5.0 0.00 0.00 0.00 60 1023.0
20260502111803 42 52 2.0 4.0 0.00 0.00 0.00 59 1023.1
20260502110923 42 52 3.0 4.0 0.00 0.00 0.00 59 1023.1
20260502110003 42 52 1.0 3.0 0.00 0.00 0.00 59 1023.2
20260502105403 42 52 1.0 2.0 0.00 0.00 0.00 59 1023.2
20260502104503 42 52 1.0 5.0 0.00 0.00 0.00 59 1023.1
20260502103602 44 54 4.0 7.0 0.00 0.00 0.00 55 1023.1
20260502102703 44 58 5.0 7.0 0.00 0.00 0.00 56 1023.1
20260502101824 44 101 5.0 7.0 0.00 0.00 0.00 58 1023.0
20260502100902 43 117 3.0 5.0 0.00 0.00 0.00 58 1023.0
20260502090924 44 23 1.0 4.0 0.00 0.00 0.00 54 1022.8
20260502070903 49 146 0.0 2.0 0.00 0.00 0.00 43 1022.7
20260502070024 49 146 1.0 4.0 0.00 0.00 0.00 43 1022.8
20260502065402 50 146 1.0 4.0 0.00 0.00 0.00 44 1022.7
20260502064503 51 146 0.0 4.0 0.00 0.00 0.00 42 1022.7
20260502063603 51 146 2.0 4.0 0.00 0.00 0.00 41 1022.6
20260502062703 51 146 1.0 4.0 0.00 0.00 0.00 40 1022.6
20260502061824 51 145 2.0 4.0 0.00 0.00 0.00 41 1022.5
20260502060903 52 139 2.0 5.0 0.00 0.00 0.00 40 1022.5
20260502060003 52 56 2.0 7.0 0.00 0.00 0.00 39 1022.4
20260502055403 52 287 4.0 7.0 0.00 0.00 0.00 40 1022.3
20260502054503 53 298 7.0 14.0 0.00 0.00 0.00 39 1022.1
20260502053603 54 302 7.0 12.0 0.00 0.00 0.00 39 1022.1
20260502052724 55 272 11.0 16.0 0.00 0.00 0.00 35 1022.0
20260502051803 55 270 12.0 18.0 0.00 0.00 0.00 36 1021.8
20260502050903 56 271 13.0 19.0 0.00 0.00 0.00 34 1021.7
20260502050003 56 274 14.0 19.0 0.00 0.00 0.00 33 1021.7
20260502045403 56 272 14.0 19.0 0.00 0.00 0.00 34 1021.7
20260502044503 56 274 13.0 18.0 0.00 0.00 0.00 34 1021.7
20260502043603 55 279 13.0 20.0 0.00 0.00 0.00 34 1021.6
20260502042724 56 279 13.0 22.0 0.00 0.00 0.00 34 1021.5
20260502041803 56 281 14.0 22.0 0.00 0.00 0.00 34 1021.4
20260502040903 57 270 15.0 22.0 0.00 0.00 0.00 32 1021.4
20260502040024 57 266 14.0 20.0 0.00 0.00 0.00 33 1021.4
20260502035403 57 267 14.0 19.0 0.00 0.00 0.00 33 1021.3
20260502034503 57 255 11.0 19.0 0.00 0.00 0.00 34 1021.1
20260502033624 57 251 9.0 19.0 0.00 0.00 0.00 34 1021.0
20260502032703 58 268 12.0 19.0 0.00 0.00 0.00 33 1020.8
20260502031824 58 275 13.0 21.0 0.00 0.00 0.00 32 1020.7
20260502030903 58 271 13.0 21.0 0.00 0.00 0.00 32 1020.7
20260502030003 58 275 13.0 20.0 0.00 0.00 0.00 32 1020.5
20260502025403 58 280 12.0 20.0 0.00 0.00 0.00 33 1020.4
20260502024503 59 278 13.0 18.0 0.00 0.00 0.00 33 1020.3
20260502023603 59 274 13.0 22.0 0.00 0.00 0.00 32 1020.3
20260502022703 60 274 15.0 23.0 0.00 0.00 0.00 31 1020.2
20260502021803 60 271 13.0 20.0 0.00 0.00 0.00 31 1020.1
20260502020903 60 272 12.0 22.0 0.00 0.00 0.00 31 1020.1
20260502020003 61 272 15.0 24.0 0.00 0.00 0.00 30 1020.1
20260502015424 62 272 17.0 24.0 0.00 0.00 0.00 30 1020.1
20260502014503 62 273 16.0 22.0 0.00 0.00 0.00 30 1020.0
20260502013603 62 272 15.0 22.0 0.00 0.00 0.00 29 1020.0
20260502012703 63 270 15.0 22.0 0.00 0.00 0.00 30 1019.9
20260502011803 63 272 15.0 22.0 0.00 0.00 0.00 29 1019.8
20260502010924 63 273 15.0 22.0 0.00 0.00 0.00 29 1019.7
20260502010003 63 272 16.0 24.0 0.00 0.00 0.00 28 1019.7
20260502005403 64 276 15.0 23.0 0.00 0.00 0.00 29 1019.9